GEFSSE_con_cape1000_012.txt.gz
Probability
6 97 100 100 100 90 81 61 45 55 74 87 100 100 100 100 100 100 100 100 100 100 100 100 100 100 100 100 100 100 100 100 100 100 100 100 100 100 100 100 71 61 97
6 100 100 100 100 100 87 84 68 65 84 94 100 100 100 100 100 100 100 100 100 100 100 100 100 100 100 100 100 100 100 100 100 100 97 94 100 100 100 100 81 68 65
32 97 100 100 100 100 90 84 74 71 87 97 100 100 100 100 100 100 100 100 100 100 100 100 100 100 100 100 100 100 100 100 100 100 90 29 84 100 100 100 100 100 84
26 77 100 100 100 97 94 81 77 71 87 100 100 100 100 100 100 100 97 97 97 100 100 100 100 100 100 100 100 100 100 100 100 100 100 90 35 94 100 100 100 100 94
0 10 100 100 100 97 94 94 81 77 84 100 100 100 100 97 97 94 94 84 84 77 90 100 100 100 97 100 100 100 100 100 100 100 97 84 32 94 100 100 100 100 74
0 23 100 100 100 100 97 97 94 84 87 100 100 100 100 100 100 97 97 97 97 87 77 94 100 100 100 100 100 100 100 100 100 100 97 74 23 100 100 100 100 100 100
6 81 100 100 100 100 100 97 94 87 90 100 100 100 100 100 100 100 100 100 100 97 90 84 87 97 100 100 100 100 100 97 100 81 52 23 3 100 100 100 100 100 100
10 97 100 100 100 100 100 97 97 97 97 97 100 100 100 100 100 100 100 100 100 97 71 65 77 100 100 100 100 100 100 97 77 48 10 0 3 100 100 100 100 100 100
6 94 100 100 100 100 100 100 100 100 100 100 100 100 100 100 100 100 100 100 97 97 87 77 58 65 94 100 100 100 100 100 97 35 3 0 29 100 100 100 100 100 100
13 94 100 100 97 100 100 100 100 100 100 100 100 100 100 97 100 100 100 100 97 97 97 100 100 94 100 100 100 100 100 100 77 6 0 0 42 100 100 100 100 100 100
68 87 94 90 87 97 97 100 100 100 100 100 100 100 100 90 45 100 100 94 97 100 100 100 100 100 100 100 100 100 100 42 3 0 0 0 39 100 100 100 100 100 100
84 74 61 68 58 71 90 100 100 100 100 100 84 94 97 10 3 35 42 100 100 100 100 100 100 100 100 77 61 100 65 6 0 0 0 0 77 100 100 100 100 100 100
71 71 61 39 26 35 23 84 87 74 52 45 23 16 10 6 0 10 3 32 100 100 100 100 100 100 81 32 3 0 0 0 0 0 0 16 94 100 100 100 100 100 100
90 100 84 42 16 3 3 19 26 32 19 26 16 3 0 0 0 0 0 0 6 13 3 0 0 6 3 3 0 0 0 0 0 0 0 32 97 100 100 100 100 100 100
87 97 100 94 65 32 10 3 6 13 16 10 3 13 6 0 0 0 0 0 0 0 0 0 0 0 0 0 0 0 0 0 0 0 0 61 100 100 100 100 100 100 100
19 84 100 100 90 71 71 19 10 3 29 13 3 6 10 0 0 0 0 0 0 0 0 0 0 0 0 0 0 0 0 0 0 0 0 0 90 94 100 100 100 100 100
3 58 94 97 71 61 71 52 10 6 0 0 0 0 0 0 0 0 0 0 0 0 0 0 0 0 0 0 0 0 0 0 0 0 0 0 0 52 87 97 100 100 100
13 74 84 100 71 71 61 61 26 10 6 6 6 6 6 0 0 0 0 0 0 0 0 0 0 0 0 0 0 0 0 0 0 0 0 0 0 0 13 81 100 100 100
16 71 77 90 94 84 87 81 68 65 74 71 52 39 48 52 16 6 10 6 3 0 0 0 0 0 0 0 0 0 0 0 0 0 0 0 0 0 0 0 87 100 100
32 61 68 52 87 97 100 100 81 84 81 87 77 84 71 55 45 3 0 3 3 3 3 0 0 0 0 0 0 0 0 0 0 0 0 0 0 0 0 0 0 10 84
74 74 74 84 87 94 100 97 94 77 74 74 68 74 65 48 35 3 3 0 0 0 0 0 0 0 0 0 0 0 0 0 0 0 0 0 0 0 0 0 0 0 0
90 87 81 84 90 90 94 84 81 84 74 55 26 13 10 10 3 0 0 0 0 0 0 0 0 0 0 0 0 0 0 0 0 0 0 0 0 0 0 0 0 0 0
68 68 61 48 39 29 35 35 29 23 13 3 3 3 3 0 0 0 0 0 0 0 0 0 0 0 0 0 0 0 0 0 0 0 0 0 0 0 0 0 0 0 0
26 26 16 10 6 10 6 3 6 3 3 3 3 0 0 0 0 0 0 0 0 0 0 0 0 0 0 0 0 0 0 0 0 0 0 0 0 0 0 0 0 0 0
6 3 0 0 0 0 0 0 0 3 3 0 0 0 0 0 0 0 0 0 0 0 0 0 0 0 0 0 0 0 0 0 0 0 0 0 0 0 0 0 0 0 0
0 0 0 0 0 0 0 0 0 0 0 0 0 0 0 0 0 0 0 0 0 0 0 0 0 0 0 0 0 0 0 0 0 0 0 0 0 0 0 0 0 0 0

GEFSSE_con_cape1000_018.txt.gz
Probability
0 16 77 55 52 68 84 94 100 100 100 100 100 100 100 100 100 100 100 100 100 100 100 100 100 100 100 100 100 97 97 100 100 100 100 100 100 100 100 97 97 97 100
0 32 84 58 52 61 71 84 94 100 100 100 100 100 100 100 100 100 100 100 100 97 97 100 100 100 100 100 100 100 97 94 94 97 100 100 100 100 97 55 61 77 94
0 42 68 77 45 45 55 71 84 94 100 100 100 100 100 100 100 100 100 100 100 97 94 100 100 100 100 100 100 100 97 97 84 71 68 55 94 100 100 58 29 65 55
0 45 39 74 52 45 48 65 71 90 100 100 100 100 100 100 100 100 100 100 100 90 84 87 94 97 100 100 100 100 97 97 94 55 45 29 35 68 100 100 87 71 45
10 16 52 81 61 61 55 71 74 87 97 100 100 100 100 100 100 100 100 100 97 90 94 97 100 97 100 100 100 100 94 94 90 87 87 84 61 65 94 100 100 90 71
6 13 68 90 74 71 68 74 74 84 97 97 100 100 100 97 90 81 74 77 81 81 90 97 97 97 97 97 100 100 100 100 97 100 100 97 87 84 100 100 100 100 100
0 10 84 94 84 71 74 77 68 84 97 97 100 100 97 94 68 48 42 55 77 74 84 90 100 100 94 94 97 94 94 87 94 90 90 74 55 55 100 100 100 100 100
0 32 90 97 94 87 74 74 74 90 97 100 100 100 100 100 94 87 74 87 87 94 87 84 94 100 100 100 100 100 100 77 61 42 48 32 13 48 94 100 100 100 100
6 42 94 97 90 90 90 87 81 94 97 100 100 100 100 100 100 100 100 100 100 94 94 87 74 74 100 100 100 100 100 94 90 77 48 10 3 32 71 100 100 100 100
10 32 45 74 84 90 90 90 94 90 94 97 100 100 100 100 100 100 100 100 100 100 100 100 97 97 100 100 100 100 100 97 81 52 6 3 6 23 52 97 100 100 97
3 35 19 16 6 23 74 94 97 100 97 97 97 100 100 100 94 100 100 100 100 100 100 100 100 100 100 100 100 100 100 81 23 6 6 6 10 19 55 97 100 100 100
0 26 42 3 6 6 68 77 94 97 100 90 94 97 100 61 16 74 39 100 100 100 97 100 100 100 100 100 90 97 84 45 19 6 6 23 61 77 84 97 100 97 97
0 6 48 35 3 10 23 6 42 84 94 87 84 65 23 10 6 19 13 23 42 58 68 90 94 97 97 94 65 32 10 6 3 3 0 16 87 97 100 100 100 100 100
3 3 16 48 23 23 10 6 23 48 42 55 29 23 10 6 3 3 6 3 3 3 6 39 32 39 29 29 26 10 3 3 3 0 0 6 81 100 100 100 97 100 100
13 10 13 42 29 19 13 6 19 42 58 45 39 29 13 13 10 10 6 0 0 0 0 3 6 6 3 3 0 0 0 0 0 0 0 0 71 100 100 100 100 100 100
68 45 39 35 23 16 16 3 23 29 39 29 23 26 23 23 16 0 0 0 0 0 0 0 0 0 0 0 0 0 0 0 0 0 0 0 3 87 100 100 100 100 100
87 65 61 52 23 10 10 6 10 19 26 19 19 16 19 16 13 10 3 3 0 0 0 0 0 0 0 0 0 0 0 0 0 0 0 0 0 0 58 100 100 100 100
84 84 74 94 48 23 6 10 13 23 19 19 13 10 6 13 13 6 6 6 0 0 0 0 0 0 0 0 0 0 0 0 0 0 0 0 0 0 0 61 100 100 100
77 81 94 100 90 42 26 16 26 16 16 10 3 6 6 13 16 6 3 3 0 0 0 0 0 0 0 0 0 0 0 0 0 0 0 0 0 0 0 0 32 94 100
61 65 84 90 90 81 52 23 13 10 13 16 16 16 16 16 23 6 0 3 0 0 3 0 0 0 0 0 0 0 0 0 0 0 0 0 0 0 0 0 0 0 29
35 39 55 81 74 68 48 26 19 23 16 16 6 16 19 19 19 6 3 0 0 0 3 0 0 0 0 0 0 0 0 0 0 0 0 0 0 0 0 0 0 0 0
29 29 35 45 55 52 35 29 16 16 6 6 0 3 3 3 3 0 0 0 3 0 0 0 0 0 0 0 0 0 0 0 0 0 0 0 0 0 0 0 0 0 0
45 35 39 39 32 29 23 10 3 3 0 0 0 0 0 0 0 0 0 0 0 0 0 0 0 0 0 0 0 0 0 0 0 0 0 0 0 0 0 0 0 0 0
39 32 35 23 10 6 10 6 6 3 6 0 0 0 0 0 0 0 0 0 0 0 0 0 0 0 0 0 0 0 0 0 0 0 0 0 0 0 0 0 0 0 0
23 19 10 3 3 0 3 6 6 0 0 0 0 0 0 0 0 0 0 0 0 0 0 0 0 0 0 0 0 0 0 0 0 0 0 0 0 0 0 0 0 0 0
3 3 3 3 0 0 0 0 0 0 0 0 0 0 0 0 0 0 0 0 0 0 0 0 0 0 0 0 0 0 0 0 0 0 0 0 0 0 0 0 0 0 0

GEFSSE_con_cape1000_024.txt.gz
Probability
0 0 16 90 97 100 100 100 100 100 100 100 97 94 97 100 97 90 84 90 97 100 100 100 100 100 97 90 81 87 100 100 97 94 97 100 97 97 87 81 74 48 81
0 0 26 94 97 100 100 100 100 100 100 100 100 100 100 100 97 90 87 81 87 94 97 100 100 97 97 87 71 74 90 97 97 94 94 94 94 81 52 32 61 68 65
0 0 6 100 97 100 100 100 100 100 100 100 100 100 100 100 100 94 90 77 77 81 94 97 94 97 94 71 58 52 55 52 58 68 68 16 48 77 42 6 19 55 42
0 0 0 97 97 100 100 100 100 100 100 100 100 100 100 100 100 97 90 84 61 39 48 65 81 94 97 81 42 26 29 29 29 19 10 10 10 77 84 48 10 13 13
0 0 48 94 97 97 97 100 100 100 100 100 100 100 94 94 94 81 77 71 39 13 13 26 42 81 90 94 84 68 32 32 26 10 6 23 39 77 90 97 90 35 23
3 0 45 87 90 94 97 97 97 100 100 100 94 90 84 87 90 81 58 45 23 19 26 45 58 77 84 87 97 94 90 84 61 6 3 23 58 90 84 97 100 90 81
0 3 13 81 84 90 94 94 97 100 100 100 97 77 71 61 55 42 39 29 32 35 39 58 74 84 84 81 87 84 84 74 68 6 23 29 48 87 84 97 97 97 100
3 6 26 81 81 84 84 87 90 100 100 100 97 84 58 39 19 16 16 6 42 55 61 65 68 71 84 90 97 87 77 58 13 3 13 6 42 68 74 94 100 100 100
0 23 45 23 71 77 81 87 90 90 97 97 97 94 90 71 68 68 61 52 65 68 77 71 61 48 48 77 100 97 84 68 10 6 0 19 74 61 65 97 97 100 100
13 32 58 35 23 42 39 74 90 94 94 97 100 100 100 94 94 94 97 97 97 90 94 90 84 97 97 100 100 100 97 55 6 3 16 32 84 42 55 87 90 97 100
52 74 58 55 68 42 10 35 68 90 97 94 97 97 100 97 87 97 87 97 90 100 100 100 100 100 100 100 100 100 100 23 3 0 0 19 45 42 74 90 100 97 100
90 94 84 81 84 45 13 39 58 39 81 90 100 100 97 97 100 58 48 100 97 97 100 100 100 100 100 94 100 100 71 26 16 23 35 71 71 68 90 100 100 100 100
97 94 94 94 97 74 58 48 58 68 94 97 97 97 97 100 100 81 77 87 97 94 81 90 100 100 94 100 94 87 68 39 48 48 48 90 97 87 100 100 100 100 100
81 84 94 100 100 100 94 84 94 97 97 97 100 100 97 100 94 71 97 42 45 84 94 90 100 97 97 97 97 90 84 97 90 94 97 100 100 100 100 100 100 100 100
87 84 97 100 100 100 100 100 97 97 97 97 100 97 97 94 97 65 97 100 90 87 94 100 100 100 100 100 100 87 90 100 97 87 97 100 100 100 100 100 100 100 100
90 77 94 100 100 100 100 100 97 97 100 97 100 100 100 97 97 97 100 100 100 100 100 100 100 100 100 100 100 100 100 100 97 94 97 100 100 100 100 100 100 100 100
81 87 100 100 100 100 100 100 100 100 100 100 100 100 100 100 100 100 100 100 100 100 100 100 100 100 100 100 100 100 100 100 100 100 100 97 97 100 100 100 100 100 100
97 100 100 100 100 100 100 100 100 100 100 100 100 100 100 100 100 100 100 100 100 100 100 100 100 100 100 100 100 100 100 100 100 100 100 97 97 90 100 100 100 100 100
100 100 100 100 100 100 100 100 100 100 100 100 100 100 100 97 97 100 100 100 100 100 100 100 100 100 97 97 94 97 94 90 97 81 90 90 94 97 87 94 100 100 100
100 100 100 100 100 100 100 100 100 100 97 97 97 94 94 90 90 90 97 97 97 90 94 97 97 97 97 94 77 61 58 45 42 52 68 45 61 61 77 74 87 87 84
100 100 100 100 100 100 97 97 94 90 90 90 87 87 81 71 55 65 61 74 87 87 87 87 87 84 77 77 52 39 13 0 16 45 52 29 6 16 45 77 84 84 94
100 97 97 97 97 94 97 97 87 90 84 81 74 68 52 39 39 39 39 42 45 77 68 68 81 74 26 26 23 6 0 0 16 0 19 23 10 6 13 29 81 87 90
97 97 94 94 94 94 94 90 90 90 90 77 74 61 48 35 35 26 19 19 26 19 26 39 48 35 26 16 10 16 0 0 0 0 10 10 23 32 16 29 61 68 74
90 90 90 90 90 90 94 87 87 94 90 84 77 55 39 19 6 0 0 0 6 3 16 16 6 13 26 13 13 45 48 23 6 0 0 6 16 19 19 6 10 29 42
65 81 84 97 97 94 94 97 97 94 87 77 48 35 26 10 3 0 0 0 6 6 3 10 10 23 19 19 13 16 13 58 29 13 0 23 29 32 32 23 19 16 19
42 52 61 87 94 94 87 87 90 87 77 58 39 32 26 10 6 3 0 3 6 3 10 13 16 19 23 26 26 26 29 19 32 39 13 32 32 42 29 32 19 16 16

GEFSSE_con_cape1000_030.txt.gz
Probability
3 6 97 100 100 100 100 97 97 94 84 87 81 90 84 77 81 84 90 97 100 100 100 100 100 81 61 68 81 94 94 90 84 84 81 81 81 77 71 74 77 16 71
6 10 100 100 100 100 100 100 100 97 94 90 94 94 87 71 61 68 68 81 90 90 94 97 97 77 39 29 39 55 68 58 42 42 48 58 58 42 39 68 94 32 52
3 23 97 100 100 100 100 100 100 100 100 97 97 97 84 65 32 35 35 35 45 61 68 77 71 48 16 6 16 26 26 19 13 29 74 39 19 35 13 10 39 39 19
0 6 74 100 100 100 100 100 100 100 97 97 97 97 90 87 48 26 13 16 16 10 23 35 39 48 35 10 6 3 3 10 10 23 39 71 19 35 35 10 6 3 0
0 0 97 100 100 100 100 100 100 100 100 100 100 100 90 81 71 32 19 10 3 0 3 6 16 32 35 32 26 16 10 13 13 23 0 29 42 77 84 58 13 13 3
0 29 94 100 100 100 100 100 100 100 100 100 97 84 84 81 71 35 29 16 3 0 0 13 10 32 39 52 58 45 48 39 39 6 0 13 35 100 94 84 84 77 45
6 61 84 100 100 100 100 100 100 100 100 100 97 84 81 81 84 61 48 26 16 10 6 32 42 45 68 74 74 81 81 81 84 42 29 42 90 100 100 97 97 94 94
26 52 74 100 100 100 100 100 100 100 100 100 97 74 71 74 81 68 58 42 35 45 42 52 58 68 74 84 90 97 100 94 26 0 13 65 100 100 100 97 97 97 97
39 52 61 97 100 100 100 100 100 100 100 100 100 87 77 71 65 68 74 65 55 61 81 74 71 74 87 97 100 100 100 100 90 0 0 32 100 100 100 97 97 100 100
52 68 35 71 87 94 97 97 100 100 100 100 100 97 94 87 87 87 97 94 90 94 97 97 94 97 100 100 100 100 100 100 68 3 3 10 100 100 100 100 100 100 100
58 77 29 45 77 77 52 84 97 100 100 100 97 97 100 100 90 97 97 100 100 97 97 100 100 100 100 100 100 100 100 97 29 13 10 55 100 100 100 100 100 100 100
77 77 65 58 58 48 23 55 68 71 97 97 100 100 100 100 100 100 100 100 100 100 100 100 100 100 100 77 100 100 97 81 58 48 39 97 100 100 100 100 100 100 100
94 87 84 81 84 61 58 71 48 39 68 87 90 100 100 100 100 100 100 100 100 100 100 100 100 94 87 87 97 100 87 87 90 81 87 100 100 100 100 100 100 100 100
94 94 90 97 100 97 81 81 81 68 84 84 90 97 100 100 100 100 100 100 100 100 100 90 94 97 97 100 100 100 97 97 97 97 100 100 100 100 100 100 100 100 100
100 100 100 100 100 100 100 100 87 90 87 87 97 94 100 100 100 100 100 100 100 100 100 100 100 100 97 100 100 100 100 100 97 97 100 100 100 100 100 100 100 100 100
100 100 100 100 100 100 100 100 100 97 100 94 100 100 100 100 100 100 100 100 97 97 97 97 97 97 100 100 100 100 100 100 100 100 100 100 100 100 100 100 100 100 100
100 100 100 100 100 100 100 100 100 97 94 100 100 100 97 97 97 97 97 97 97 97 97 90 90 97 94 97 97 94 100 100 100 100 100 100 100 100 100 100 100 100 100
100 100 100 100 100 100 100 100 100 100 100 100 100 100 97 97 97 97 97 97 97 97 94 94 94 97 84 81 81 81 81 94 100 100 97 97 100 100 100 100 100 100 100
100 100 100 100 100 100 100 100 100 100 100 100 100 100 100 97 97 97 97 97 97 97 94 81 81 81 71 71 71 55 68 77 87 87 90 94 97 100 100 100 100 100 100
100 100 100 100 100 100 100 100 100 100 100 100 100 100 100 100 97 97 97 97 97 90 90 87 77 77 68 65 32 32 48 48 77 71 71 68 84 87 87 84 100 100 100
97 100 100 100 100 100 100 100 100 100 100 100 100 100 100 97 94 94 90 90 90 90 90 81 65 68 68 55 35 16 23 32 32 45 61 58 52 81 87 94 97 97 97
97 97 97 100 100 100 100 100 100 100 100 100 100 100 100 100 97 90 90 90 87 77 71 58 58 52 35 29 23 13 16 10 39 26 71 87 71 74 84 61 84 97 94
84 87 90 97 97 97 97 100 100 100 100 100 100 100 100 100 100 100 87 74 77 65 58 55 45 39 19 13 26 26 16 10 16 19 48 84 84 87 77 74 81 84 97
42 55 81 97 97 97 97 100 100 100 100 100 100 100 100 100 94 84 81 71 65 61 52 39 32 29 19 6 13 26 16 23 13 10 16 58 61 55 68 42 42 52 71
19 23 58 87 97 97 94 97 97 97 97 97 97 100 100 97 97 81 81 77 68 52 48 48 35 26 13 10 13 16 23 23 29 13 0 10 26 48 58 61 65 45 42
6 10 19 71 90 94 94 94 94 94 97 97 94 94 97 94 90 71 65 65 68 58 45 29 23 13 10 10 16 19 19 23 16 10 3 6 16 39 52 65 61 39 26

GEFSSE_con_cape1000_036.txt.gz
Probability
3 61 100 100 100 100 97 81 77 74 81 94 97 94 94 100 100 100 100 100 100 100 100 94 90 90 97 94 94 94 90 94 97 94 87 87 90 94 94 94 94 81 94
6 71 100 100 100 100 97 90 81 81 90 94 97 90 90 94 97 97 100 100 100 100 97 87 81 65 65 58 61 68 68 68 68 65 52 55 74 87 90 97 74 71 90
13 71 100 100 100 100 94 94 90 90 94 97 100 90 87 84 84 94 97 97 100 97 97 87 58 29 29 23 32 32 23 23 26 32 32 6 39 65 74 84 74 74 71
19 68 90 100 100 100 97 97 94 94 94 97 100 97 87 84 81 74 74 81 84 77 81 81 58 23 13 6 10 10 10 6 6 10 3 13 6 45 71 77 74 61 55
19 39 81 100 100 100 97 100 100 100 97 100 100 97 94 94 87 71 48 39 39 35 39 48 45 32 23 19 19 10 10 10 23 19 0 0 0 29 84 87 68 55 48
10 48 94 100 100 100 100 100 100 100 100 97 100 100 100 94 94 84 68 35 39 29 16 23 42 58 71 65 55 35 35 35 32 13 0 0 0 29 97 97 90 71 61
19 65 94 100 100 100 100 100 100 100 100 100 100 100 100 97 90 74 74 68 55 52 35 39 55 77 90 90 90 87 81 74 58 29 6 0 0 45 100 100 100 97 84
19 68 94 100 100 100 100 100 100 100 100 100 100 100 100 100 97 94 87 81 68 55 61 74 84 90 94 100 100 100 100 97 81 32 3 0 0 48 100 100 100 100 100
10 61 97 100 100 100 100 100 100 100 100 100 100 100 100 100 100 100 100 100 94 97 97 94 97 97 100 100 100 100 100 100 94 55 10 0 0 94 100 100 100 100 100
6 39 87 97 100 100 100 100 100 100 100 100 100 100 100 100 100 100 100 100 100 100 100 100 100 100 100 100 100 100 100 100 97 74 29 0 35 97 100 100 100 100 100
6 23 68 81 74 77 94 100 100 100 100 100 100 100 100 90 74 97 100 100 100 100 100 100 100 100 100 100 100 100 100 97 74 45 10 26 84 97 100 100 100 100 100
6 3 61 55 58 48 84 100 100 100 100 100 97 100 100 48 19 68 77 100 100 100 100 100 100 100 100 97 97 100 97 94 45 26 19 77 97 100 100 100 100 100 100
6 6 10 35 45 35 13 26 77 90 87 87 81 71 77 58 29 77 52 84 100 100 97 100 100 100 100 87 61 32 29 35 39 23 19 100 100 100 100 100 100 100 100
16 6 3 13 23 13 3 6 26 26 39 55 58 68 68 71 52 35 45 42 68 77 87 97 94 87 84 61 39 23 13 16 35 19 10 100 100 100 100 100 100 100 100
26 19 13 16 16 13 10 10 16 6 10 19 23 16 58 61 58 61 68 71 74 71 74 81 81 71 58 42 35 32 48 55 52 39 26 100 100 100 100 100 100 100 100
35 26 19 32 23 16 26 29 26 19 19 26 29 16 32 61 71 74 71 74 84 71 68 77 84 58 55 45 52 52 52 52 55 48 45 71 100 100 100 100 100 100 100
45 48 48 45 42 45 55 71 65 58 48 48 48 48 45 55 74 74 84 84 87 74 61 52 48 32 42 39 45 52 45 32 39 45 39 52 71 94 100 100 100 100 100
65 65 71 81 71 68 71 74 74 81 81 81 84 81 74 71 71 77 84 84 81 68 48 39 32 29 26 23 19 23 19 19 16 19 19 26 35 55 90 97 100 100 100
71 68 71 74 81 87 74 68 74 87 94 90 84 84 87 84 81 81 84 81 71 55 39 39 29 23 23 19 16 16 13 16 16 16 6 10 13 19 32 68 97 100 100
71 61 61 68 81 90 90 90 90 94 97 97 94 90 94 94 90 90 87 84 58 55 42 29 23 19 16 16 16 16 13 10 10 3 3 3 0 6 13 23 52 87 100
65 65 58 65 65 81 90 90 94 94 97 97 97 94 94 90 90 87 87 74 58 48 35 32 16 16 13 10 10 10 3 3 3 3 3 0 0 0 0 13 10 23 61
39 48 55 61 68 74 74 71 81 97 97 97 97 94 90 87 87 87 90 74 61 52 39 26 16 13 13 6 0 0 0 0 0 0 0 0 0 0 0 0 0 0 16
29 39 45 42 48 58 61 65 61 65 65 71 71 77 77 81 77 81 74 58 48 35 26 23 16 16 13 3 0 0 0 0 0 0 0 0 0 0 0 0 0 0 0
19 23 26 39 42 42 42 32 26 52 52 52 45 61 61 61 61 55 52 39 35 32 26 23 16 13 10 0 0 0 0 0 0 0 0 0 0 0 0 0 0 0 0
16 10 19 26 23 29 29 19 19 16 13 16 13 23 26 29 39 39 42 35 29 19 26 19 19 13 10 3 0 0 0 0 0 0 0 0 0 0 0 0 0 0 0
6 10 13 13 16 19 19 6 6 6 3 3 3 6 10 10 16 19 26 23 19 13 16 16 13 10 10 0 0 0 0 0 0 0 0 0 0 0 0 0 0 0 0

GEFSSE_con_cape1000_042.txt.gz
Probability
0 32 100 87 71 71 77 94 100 100 100 100 100 100 100 100 100 100 97 77 61 45 58 74 90 97 94 94 90 94 94 94 94 94 94 94 94 94 94 84 84 90 94
0 35 100 94 81 77 77 81 94 97 100 100 100 100 100 100 100 100 100 94 71 48 29 48 58 58 68 65 71 81 84 81 77 74 77 90 87 90 94 77 71 81 90
3 58 94 94 81 77 71 77 87 94 97 97 100 100 100 100 100 100 100 97 87 61 45 29 29 39 39 42 52 55 52 52 55 48 45 39 65 74 87 68 71 87 87
13 65 87 97 90 77 74 77 81 97 97 97 100 100 100 97 97 97 97 94 90 77 65 32 13 6 10 29 26 29 26 29 32 23 3 3 29 55 71 77 77 81 81
16 61 84 100 100 90 87 81 90 97 100 100 100 100 90 90 77 74 84 84 81 71 71 65 32 19 16 16 19 16 16 16 19 3 3 3 0 26 74 81 81 84 84
29 42 87 100 100 97 94 94 97 100 100 100 100 97 97 84 81 71 68 71 74 74 68 68 58 68 55 42 29 26 19 16 16 16 6 0 0 0 65 97 94 90 90
16 39 87 100 100 100 97 97 100 100 100 100 100 100 97 97 90 87 81 81 94 81 81 81 87 97 94 84 87 84 74 61 61 23 13 3 0 0 52 100 100 100 100
19 52 87 100 100 100 100 97 100 100 100 100 100 100 100 100 100 100 100 97 97 100 100 97 100 100 100 100 100 100 97 87 71 52 32 16 10 23 81 100 100 100 100
32 58 84 97 97 100 100 100 100 100 100 100 100 100 100 100 100 100 100 100 100 100 100 100 97 100 100 100 100 100 100 100 100 77 65 39 16 52 94 100 100 100 100
42 68 81 90 90 94 100 100 100 100 100 100 100 100 100 100 100 100 100 100 100 100 100 100 100 100 100 100 100 100 100 100 100 100 90 65 87 97 100 100 100 100 100
32 68 77 84 84 87 97 100 100 100 100 100 100 100 100 100 100 100 100 100 100 100 100 100 100 100 100 100 100 100 100 100 100 97 94 81 100 100 100 100 100 100 100
10 65 74 77 81 87 97 97 100 100 100 100 100 100 100 100 84 100 100 100 100 100 100 100 100 100 100 100 100 100 100 100 97 97 90 97 100 100 100 100 100 100 100
3 23 68 81 77 84 90 71 87 100 100 100 100 97 90 81 65 90 84 100 100 100 100 100 100 100 100 100 100 100 97 94 87 87 77 97 100 100 100 100 100 100 100
0 6 45 84 90 87 81 52 55 81 90 94 90 87 77 77 74 74 68 55 39 52 81 94 100 100 100 100 100 100 100 94 74 55 45 94 100 100 100 100 100 100 100
3 6 10 65 77 81 71 45 35 55 81 90 87 87 84 84 81 77 74 58 39 35 45 68 74 90 90 97 97 100 97 97 84 55 61 90 100 100 100 100 100 100 100
32 10 10 39 55 52 48 35 29 13 39 39 42 52 65 74 74 35 29 32 29 35 42 55 68 71 77 71 74 81 90 90 74 71 77 84 100 100 100 100 100 100 100
39 23 16 16 26 26 35 26 13 10 19 26 32 19 26 35 39 32 23 32 42 45 55 55 61 52 55 55 55 52 55 58 58 65 61 68 58 71 94 100 100 100 100
52 29 23 45 35 16 23 19 19 26 29 26 26 26 32 35 32 35 42 42 55 61 55 48 45 42 42 35 29 26 32 29 29 32 29 29 29 29 48 81 97 97 100
55 48 39 35 35 29 29 32 35 29 39 45 48 45 52 58 74 55 52 55 58 58 52 48 42 32 32 26 19 16 16 16 16 16 23 19 23 23 19 13 48 71 90
55 48 45 42 42 42 29 29 32 29 39 39 52 55 65 71 71 65 65 68 65 65 48 42 32 26 23 19 16 19 16 16 16 13 13 13 6 3 3 6 16 23 48
52 45 35 35 32 39 39 32 29 32 32 35 29 39 39 45 55 58 68 74 74 68 68 42 39 29 23 19 13 16 13 13 13 13 10 3 3 3 0 3 10 10 23
42 39 42 35 32 35 29 26 26 26 39 35 29 29 26 29 29 39 55 52 58 65 68 55 29 23 19 13 16 10 10 3 3 3 3 3 0 0 0 0 0 3 10
45 39 39 29 29 19 19 10 13 10 10 10 13 13 16 19 19 16 19 26 42 45 48 39 32 29 26 13 10 10 3 3 0 0 0 0 0 0 0 0 0 0 3
32 26 23 16 16 16 13 10 10 6 6 6 6 6 6 6 6 10 13 16 19 26 35 35 29 26 23 16 10 10 6 3 0 0 0 0 0 0 0 0 0 0 0
16 16 13 10 6 3 3 6 3 0 0 0 0 0 0 0 0 6 10 10 16 19 26 29 23 19 13 10 10 13 6 3 0 0 0 0 0 0 0 0 0 0 0
6 10 10 10 3 3 3 0 0 0 0 0 0 0 0 0 0 0 3 6 10 10 23 23 19 10 6 3 10 6 3 3 0 0 0 0 0 0 0 0 0 0 0